Weather History for Eureka, NV

Change the Weather History Date:

Tuesday, December 18, 2012

  Actual Average Record
Temperature  
Mean Temperature 16 °F 24 °F  
Max Temperature 32 °F 37 °F 60 °F (1979)
Min Temperature 0 °F 10 °F -18 °F (1984)
Degree Days  
Heating Degree Days 49 41  
Month to date heating degree days 570 705  
Since 1 July heating degree days 1866 2464  
Cooling Degree Days 0 0  
Month to date cooling degree days 0 0  
Year to date cooling degree days 529 288  
Moisture  
Dew Point 18 °F    
Average Humidity 80    
Maximum Humidity 92    
Minimum Humidity 67    
Precipitation  
Precipitation 0.07 in 0.02 in 0.38 in (2013)
Month to date precipitation 0.52 0.34  
Year to date precipitation 6.44 8.73  
Sea Level Pressure  
Sea Level Pressure 29.79 in    
Wind  
Wind Speed 7 mph (NNW)    
Max Wind Speed 17 mph    
Max Gust Speed 21 mph    
T = Trace of Precipitation, MM = Missing Value Source: NWS Daily Summary

Daily Weather History Graph

Daily Weather History Graph

Search for Another Location

Airport:

Trip Planner

Search our weather history database for the weather conditions in past years. The results will help you decide how hot, cold, wet, or windy it might be!

Date:

Astronomy

Dec. 18, 2012 Rise Set
Actual Time 6:59 AM PST 4:22 PM PST
Civil Twilight 6:29 AM PST 4:52 PM PST
Nautical Twilight 5:55 AM PST 5:26 PM PST
Astronomical Twilight 5:22 AM PST 5:59 PM PST
Moon 10:43 AM PST (12/18) 10:51 PM PST (12/18)
Length of Visible Light 10h 23m
Length of Day
9h 22m
Waxing Crescent, 36% of the Moon is Illuminated
Dec 18
Waxing Crescent
Dec 19
First Quarter
Dec 28
Full
Jan 4
Last Quarter
Jan 11
New

Hourly Weather History & Observations

Time (PST) Temp. Windchill Dew Point Humidity Pressure Visibility Wind Dir Wind Speed Gust Speed Precip Events Conditions
12:53 AM 30.0 °F 22.4 °F 27.0 °F 88% 29.76 in - NNW 8.1 mph - 0.02 in   Unknown
1:53 AM 28.9 °F 23.9 °F 26.1 °F 89% 29.74 in - SW 4.6 mph - N/A   Unknown
2:53 AM 28.0 °F - 24.1 °F 85% 29.75 in - Calm Calm - N/A   Unknown
3:53 AM 28.0 °F 24.2 °F 24.1 °F 85% 29.74 in - South 3.5 mph - N/A   Unknown
4:53 AM 27.0 °F 19.5 °F 24.1 °F 89% 29.76 in - NNW 6.9 mph - N/A   Unknown
5:53 AM 25.0 °F 20.7 °F 21.9 °F 88% 29.76 in - North 3.5 mph - N/A   Unknown
6:53 AM 25.0 °F 20.7 °F 21.9 °F 88% 29.76 in - South 3.5 mph - N/A   Unknown
7:53 AM 25.0 °F - 21.9 °F 88% 29.77 in - Calm Calm - N/A   Unknown
8:53 AM 25.0 °F 19.3 °F 21.9 °F 88% 29.77 in - South 4.6 mph - 0.01 in   Unknown
9:53 AM 26.1 °F 16.8 °F 21.9 °F 84% 29.75 in - North 9.2 mph - 0.01 in   Unknown
10:53 AM 27.0 °F 18.0 °F 21.9 °F 81% 29.75 in - North 9.2 mph - 0.01 in   Unknown
11:53 AM 27.0 °F 15.6 °F 21.0 °F 78% 29.71 in - NNW 13.8 mph - N/A   Unknown
12:53 PM 26.1 °F 15.6 °F 21.0 °F 81% 29.72 in - North 11.5 mph - N/A   Unknown
1:53 PM 25.0 °F 14.8 °F 19.9 °F 81% 29.72 in - North 10.4 mph - 0.01 in   Unknown
2:53 PM 24.1 °F 12.5 °F 19.0 °F 81% 29.73 in - North 12.7 mph - 0.01 in   Unknown
3:53 PM 23.0 °F 11.7 °F 18.0 °F 81% 29.74 in - North 11.5 mph - N/A   Unknown
4:53 PM 21.9 °F 13.4 °F 17.1 °F 82% 29.77 in - North 6.9 mph - N/A   Unknown
5:53 PM 21.0 °F 12.4 °F 17.1 °F 85% 29.81 in - NNW 6.9 mph - N/A   Unknown
6:53 PM 19.9 °F 9.3 °F 14.0 °F 78% 29.84 in - North 9.2 mph - N/A   Unknown
7:53 PM 19.0 °F 6.8 °F 10.9 °F 71% 29.87 in - NNW 11.5 mph - N/A   Unknown
8:53 PM 18.0 °F 8.7 °F 10.9 °F 74% 29.89 in - NW 6.9 mph - N/A   Unknown
9:53 PM 12.9 °F 3.8 °F 7.0 °F 77% 29.94 in - NNE 5.8 mph - N/A   Unknown
10:53 PM 10.0 °F 0.4 °F 6.1 °F 84% 29.98 in - South 5.8 mph - N/A   Unknown
11:53 PM 1.0 °F -10.3 °F -2.0 °F 87% 30.04 in - SW 5.8 mph - N/A   Unknown